Theta_e
293 294 294 295 295 294 294 294 290 287 289 294 298 307 307 309 310 316 316 313 311 310 310 311 314 314 314 315 317 319 322 324 327 329 330 331 332 332
293 292 293 294 294 294 294 294 294 292 288 294 297 299 301 304 309 312 312 310 311 308 308 308 310 312 313 313 313 315 317 319 321 324 326 327 329 330
291 291 291 293 293 294 293 293 293 292 288 291 296 298 300 301 305 306 309 311 314 309 307 308 308 308 309 309 309 310 312 314 316 319 322 324 327 328
289 289 289 292 292 294 293 292 292 292 290 290 292 293 295 298 301 303 307 309 311 309 305 304 304 306 307 307 306 305 306 308 309 312 314 318 322 324
288 289 289 290 290 291 291 291 292 293 292 291 289 291 292 295 298 299 302 305 310 307 304 303 303 305 306 306 306 304 304 303 304 305 307 310 313 316
289 289 290 290 289 290 290 290 291 290 291 290 289 289 290 292 295 294 292 297 298 302 302 303 303 304 305 305 306 304 304 303 303 303 303 303 304 307
288 288 288 290 291 290 290 289 289 288 288 288 288 288 288 288 288 290 290 293 293 296 299 304 303 305 307 307 310 305 302 303 303 302 303 302 302 304
286 287 288 289 289 289 289 289 288 287 286 287 287 287 288 289 290 289 288 287 285 295 294 292 297 298 305 310 304 299 303 302 301 301 302 302 301 302
286 286 286 288 288 287 287 288 288 289 288 288 286 287 288 289 290 289 288 288 287 289 290 288 294 297 305 307 299 295 295 298 299 299 299 300 300 300
286 286 286 286 287 286 286 286 287 289 289 289 289 289 290 290 290 289 288 288 288 288 291 287 296 298 301 300 296 295 294 295 297 297 297 298 297 296
285 285 286 285 286 287 285 284 284 286 288 289 289 289 289 289 289 288 285 285 284 285 290 290 292 291 289 291 294 295 294 293 293 294 296 295 295 295
284 284 285 284 286 286 285 284 282 283 285 286 287 289 290 291 290 290 287 285 284 285 293 291 290 293 290 290 289 293 294 292 293 293 293 293 293 298
282 282 282 284 285 286 285 283 283 284 285 285 286 286 287 288 289 291 290 288 286 286 292 293 289 292 289 289 289 289 289 289 291 292 293 293 293 293
280 281 282 284 284 285 283 284 284 284 284 284 284 285 285 286 287 288 291 290 290 290 293 294 289 288 288 288 289 289 289 289 289 289 290 292 291 290
282 283 283 283 283 282 283 283 282 283 283 282 283 284 285 286 287 288 289 290 290 288 289 288 288 288 287 287 288 287 288 289 290 290 289 289 288 289
281 282 281 281 281 280 281 282 282 282 282 282 282 285 287 286 286 287 286 287 287 288 288 287 287 287 286 286 286 286 287 287 289 288 288 288 289 290
279 280 279 279 279 279 280 280 281 281 281 282 282 283 285 285 285 287 286 286 285 285 286 288 288 286 285 285 285 286 286 286 287 287 288 287 287 288
278 277 277 277 277 277 278 278 280 280 281 282 282 283 283 284 284 285 286 285 284 285 285 285 285 285 285 285 286 283 286 285 286 286 286 286 286 286
276 276 275 276 276 276 277 277 277 279 281 281 281 282 283 283 284 284 284 285 284 285 285 285 284 283 284 283 285 286 283 285 285 285 285 284 285 284
275 275 274 275 275 275 275 276 277 278 279 280 281 281 282 282 282 283 284 284 284 284 283 284 283 283 282 281 282 284 286 283 284 285 284 285 285 285
272 273 274 274 274 274 274 275 275 276 277 278 279 280 281 282 281 282 283 284 284 283 282 282 284 284 286 286 283 283 285 286 285 283 284 284 283 284
271 271 272 273 273 273 273 273 274 274 275 276 277 279 281 281 281 281 282 282 284 284 283 284 285 285 284 282 281 281 282 284 285 284 284 284 285 283
269 270 270 271 271 271 272 272 272 273 273 274 276 277 280 280 280 281 281 282 283 284 284 284 284 285 283 283 282 282 282 283 283 282 282 283 284 283
Wind_Speed
8 7 7 7 7 9 7 7 10 14 16 12 13 13 13 15 18 19 17 21 23 24 26 25 25 25 22 22 23 24 25 26 26 26 27 26 27 27
7 9 9 8 10 9 7 8 9 11 17 12 11 17 19 17 20 15 18 24 23 21 25 26 27 29 28 23 22 24 26 25 26 27 27 27 27 29
10 10 11 12 9 10 10 10 9 10 16 15 13 13 17 20 20 20 18 19 16 20 19 24 28 29 27 25 24 22 24 24 24 26 28 27 28 28
13 14 14 10 13 11 10 12 12 12 14 23 15 15 17 18 19 22 16 14 16 17 17 24 24 25 29 29 24 20 21 22 23 23 25 26 27 27
15 14 15 14 13 12 13 12 12 11 13 14 16 14 15 14 16 17 17 19 15 17 20 22 23 24 24 28 26 20 20 20 23 23 25 27 27 26
14 14 13 13 15 16 14 14 13 14 14 12 14 14 13 15 13 14 18 15 16 14 20 21 15 20 22 23 25 19 16 19 22 24 24 26 25 26
15 14 14 19 22 18 12 14 16 13 13 14 14 14 13 13 14 12 14 17 17 14 14 13 12 14 15 21 19 16 18 23 26 23 23 25 27 29
13 14 14 17 18 22 22 24 19 17 18 14 15 16 19 15 14 12 13 14 20 7 12 18 13 17 14 12 17 24 22 19 23 22 24 28 28 29
14 14 14 12 17 17 22 23 19 20 19 16 19 17 20 18 18 17 15 15 17 16 14 17 14 15 12 11 15 18 21 23 20 20 24 28 26 28
14 15 15 17 16 22 20 18 17 14 14 12 17 19 19 20 19 18 18 17 14 14 14 14 11 12 12 7 14 16 18 18 14 12 13 18 20 17
14 14 15 17 25 30 20 20 19 16 17 24 25 27 29 30 26 14 12 12 13 14 10 10 12 8 4 3 6 13 15 22 20 14 9 8 11 13
14 14 20 20 29 30 19 18 18 19 19 18 17 17 19 18 23 14 11 11 11 9 5 3 7 7 5 2 3 5 6 13 14 14 12 11 6 7
11 13 12 27 29 28 26 15 20 22 17 15 15 13 15 14 13 12 11 10 10 11 13 9 3 8 4 5 3 2 3 2 3 4 12 13 11 8
13 12 14 27 28 26 20 27 28 19 13 13 13 13 14 15 14 15 15 11 11 15 14 9 5 2 3 3 4 3 2 3 3 5 6 7 10 13
11 16 23 25 24 18 25 25 19 13 14 13 14 13 13 12 15 14 14 13 11 6 4 4 4 6 3 3 3 3 4 3 5 5 3 5 4 3
14 11 12 15 15 15 15 16 13 13 14 14 14 13 12 12 11 12 12 11 9 6 5 4 4 4 3 1 2 3 4 4 5 4 3 3 3 5
12 9 10 12 13 14 14 15 14 14 15 15 15 15 13 14 13 12 11 10 9 8 7 7 6 4 5 5 3 4 5 3 6 6 3 2 4 6
8 10 11 12 13 14 14 15 14 17 15 15 14 14 15 15 14 12 11 11 11 9 8 8 8 4 1 5 12 7 4 4 4 6 5 3 3 6
9 9 10 11 12 13 13 13 14 14 17 14 14 15 14 15 16 12 13 11 11 10 9 9 8 7 5 5 2 15 6 4 5 3 4 4 3 5
9 9 11 11 11 12 13 14 14 14 14 14 15 14 15 14 14 14 13 13 11 10 10 9 10 8 5 5 4 3 12 8 5 3 2 1 2 3
8 9 9 10 11 11 12 12 13 13 14 14 14 14 14 14 14 14 14 17 14 10 10 10 11 14 6 3 4 7 8 13 10 6 5 4 4 3
8 9 9 9 10 11 11 12 13 14 14 13 14 14 13 13 14 15 13 13 12 10 9 8 9 8 8 9 9 9 8 8 10 13 16 6 2 2
7 8 8 9 9 10 11 11 12 12 13 13 13 14 13 13 13 13 13 13 12 11 10 9 7 6 8 8 7 8 12 10 8 12 13 20 18 18
Wind_Direction
321 317 305 318 315 309 297 297 302 306 303 308 303 317 318 310 301 300 303 297 285 286 283 275 273 272 259 250 247 247 244 244 243 237 230 221 218 220
325 320 319 314 316 311 299 293 284 293 297 309 314 308 304 297 302 306 304 300 293 277 273 275 275 270 264 251 242 239 242 239 237 236 230 222 217 217
331 327 320 315 308 313 313 304 295 297 294 300 296 309 313 305 306 301 301 300 297 301 303 291 279 267 260 261 250 238 239 239 234 233 234 231 221 216
333 333 332 327 316 311 313 305 301 296 296 297 310 310 305 301 304 297 293 297 292 297 307 307 300 288 278 269 256 245 237 234 234 234 236 229 227 217
340 336 335 331 325 323 316 308 305 298 297 296 304 308 303 300 302 304 309 302 299 319 310 304 297 292 282 267 261 249 238 234 231 228 227 222 220 218
342 337 332 331 324 325 324 320 314 309 301 299 298 301 300 308 303 315 310 303 302 312 308 289 302 314 308 299 277 258 250 246 244 231 227 223 214 206
343 341 340 331 328 326 319 322 319 311 304 300 297 297 300 303 301 304 296 305 303 305 300 303 324 312 308 305 285 255 244 239 243 237 233 226 218 216
341 341 336 334 334 328 329 319 308 301 302 300 298 297 295 296 293 291 292 295 298 303 315 303 307 299 299 298 323 322 281 260 249 240 237 232 218 216
343 338 334 335 333 333 326 320 311 304 287 290 293 294 295 294 294 291 286 283 288 296 292 291 294 284 293 300 299 315 320 288 259 245 233 227 216 215
341 337 334 332 336 336 330 326 324 318 311 303 293 293 289 291 287 286 287 283 281 282 278 275 284 287 289 278 306 315 347 335 275 256 246 232 215 193
338 336 340 333 335 338 335 330 326 323 320 311 300 296 292 289 284 287 279 280 283 288 280 267 266 277 257 292 303 347 355 3 8 18 340 273 227 181
338 338 336 335 336 338 337 333 329 329 323 321 319 318 317 309 303 281 274 271 275 290 277 316 326 312 298 254 295 346 352 4 3 9 31 31 317 267
337 335 332 334 338 338 341 335 331 324 323 323 329 325 328 326 322 315 284 261 263 259 278 285 292 311 258 293 310 328 345 337 331 351 17 15 32 12
339 330 326 335 339 340 342 338 336 332 331 329 331 335 333 332 326 320 319 290 259 261 280 298 280 266 307 293 277 343 304 325 342 357 24 4 8 40
335 330 335 340 340 341 342 342 341 341 337 335 333 332 332 322 320 324 327 325 314 289 289 307 294 285 260 293 306 329 329 358 18 11 345 23 356 335
332 335 334 337 341 342 346 347 345 343 339 337 334 327 329 336 335 337 333 332 323 335 314 303 315 344 322 256 280 312 356 358 350 1 344 2 14 20
338 346 352 354 351 351 349 347 344 343 343 339 338 338 338 342 343 342 340 338 341 338 338 336 338 27 30 6 348 358 352 352 4 354 3 348 17 23
359 2 356 355 352 347 347 344 345 342 341 338 339 341 340 340 342 346 346 347 347 346 345 344 340 331 297 56 43 360 357 353 348 356 356 355 12 15
12 2 357 351 348 344 343 343 340 339 336 339 341 343 341 341 341 344 352 350 349 348 349 344 352 354 349 358 9 35 359 345 340 3 18 11 10 4
9 360 351 346 347 343 342 340 338 338 341 340 340 342 342 341 343 345 348 349 350 349 350 354 359 351 352 351 346 341 15 10 348 350 27 208 230 303
358 355 349 343 342 339 338 336 335 336 338 338 341 341 342 342 343 343 344 347 350 354 358 0 356 349 349 337 10 5 3 11 22 6 337 354 2 15
352 349 343 340 340 339 337 337 336 339 342 341 341 340 344 345 342 342 344 346 348 352 354 353 354 1 18 23 21 9 5 1 12 22 28 19 346 27
342 340 337 337 340 340 338 339 337 335 337 337 336 340 340 348 345 343 343 346 348 350 355 356 360 4 16 15 11 13 15 17 17 33 38 40 57 75